"Pseudo-MPEC" for 2H41B21

Created 2022 Sep 11 14:22:02 UT using Find_Orb

Click here for an explanation of pseudo-MPECs

 
 Astrometry: 
     2H41B21*KC2022 08 05)V!%H3/;:c5^4efAAmxD!M'8rea/1W_ogatiN)^hFs'Z9mZ:T$;\W94
     2H41B21 KC2022 08 05+S.Jn=6%#+FdY58NZbG;C`byuSyi_KxAstrometry/t;ES*\ciNYW94
     2H41B21 KC2022 08 05=cB?$eYgdredacted;TCq.aamg_VaTV:s`n/$^^]click!GY@%DlW94
     2H41B21 KC2022 08 05b.64QOcrh@YBvNo6BYn=R\eVC00jL?Z:5eiy^1sqToy#_B\TS`8qW95
     2H41B21 KC2022 08 05Koo5%9xMV483ve,HsUGwnC3Fgb88h-a#3seM*y@^fpILC'@tPc-RW95
     2H41B21 KC2022 08 05cNoA]/(:v]hb0r;PV(G%T?H6_vfI*rfXgherehS$R\s(?aj)Y`4iW95
     2H41B21 KC2022 08 05h5nBTqXnmx=QK]d8L=q$yD,r+Q76-YKU!YL4MtfDK7(5*.SU2,yrW95
     2H41B21 KC2022 08 05%^#'nqcMB)UEq)?]'jO/ZY=3h)?gVDforK3%'(vj/rblN-c1L!8qW95
     2H41B21 KC2022 08 05PQc?+#7rY6explanationwF;$(lH8d0^8H#D#;-Fp7!:VMMl$ta(W95
     2H41B21 KC2022 08 06VS*H:-0X/4W2*L?Hsi9kDTGK[mO/U1fb;4Uukh*%Epcq51DX$6VX221
     2H41B21 KC2022 08 067'n+VW:gC(2]8a(Fa%JP,5ud9euL@aYwUu2]aIuQUH8ZebdKw9ij221
     2H41B21 KC2022 08 06$d[g\v4,cr]$AXLg)d!HfsW%bG*'d?n;nh!H+s,c:Df,M*-u0sHA221

Station data:
(221) IAS Observatory, Hakos  (S23.236367 E16.361700)  Namibia.  Observers D.
   Husar, L. Demetz. Measurer D. Husar. 0.2-m f/3 Riccardi-Honders + CCD0.5-m
   f/6.8 Corrected Dall-Kirkham + CCD.
(W94) AMACS1, San Pedro de Atacama  (S22.953074 W68.179810)  Chile.  Observers
   A. Maury, G. Attard. Measurers A. Maury, G. Attard, D. Parrott. 0.28-m
   f/2.2 Schmidt + CCD.
(W95) Observatorio Panameno, San Pedro de Atacama  (S22.953179 W68.179880)
   Chile.  Observers A. Maury, G. Attard, J. Fabrega. Measurers A. Maury, G.
   Attard, D. Parrott. 0.40-m f/3.8 reflector + CCD.

Orbital elements:  2H41B21
   Perihelion 2022 Jun 13.74390 +/- 2.97 TT = 17:51:13 (JD 2459744.24390)
Epoch 2022 Aug  6.0 TT = JDT 2459797.5   Earth MOID: 0.2362   AutoNEOCP
M  14.97235266 +/- 4.3              (J2000 ecliptic)
n   0.28113873 +/- 0.0647           Peri.  154.49762 +/- 1.9
a   2.30775085 +/- 0.342            Node   127.24150 +/- 0.6
e   0.4725115 +/- 0.0779            Incl.   46.31354 +/- 1.7
P   3.51                   H 19.9   G  0.15   U 10.9
q 1.21731198 +/- 0.0165    Q 3.39818973 +/- 0.677
From 12 observations 2022 Aug. 5-6 (20.2 hr); mean residual 0".49
Residuals in arcseconds: 
220805 W94  .40-  .72-    220805 W95  1.0+  .02+    220805 W95  .09-  .34+    
220805 W94  .28+  .22+    220805 W95  .42+  .05-    220806 221  .87-  .26-    
220805 W94  .43-  .56+    220805 W95  .90-  .08+    220806 221  .99+  .40+    
220805 W95  .32+  .07+    220805 W95  .03+  .55-    220806 221  .12-  .14-    

Ephemerides (geocentric):
Date (UTC) HH   RA             Dec           delta  r     elong  mag " sig PA
---- --------  ------------   ------------  ------ ------ -----  --- --------
2022 09 11 14  00 50 46.695   -71 19 49.13  .83282 1.5246 111.6 21.9  521 132
2022 09 11 15  00 50 44.084   -71 20 18.17  .83332 1.5248 111.6 21.9  522 132
2022 09 11 16  00 50 41.467   -71 20 47.11  .83381 1.5251 111.6 21.9  523 132
2022 09 11 17  00 50 38.843   -71 21 15.93  .83431 1.5253 111.6 21.9  524 132
2022 09 11 18  00 50 36.214   -71 21 44.65  .83481 1.5255 111.5 21.9  525 132
2022 09 11 19  00 50 33.577   -71 22 13.25  .83530 1.5258 111.5 21.9  526 132
2022 09 11 20  00 50 30.935   -71 22 41.74  .83580 1.5260 111.5 21.9  527 132
2022 09 11 21  00 50 28.286   -71 23 10.12  .83629 1.5263 111.5 21.9  528 132
2022 09 11 22  00 50 25.631   -71 23 38.39  .83679 1.5265 111.5 21.9  529 132
2022 09 11 23  00 50 22.970   -71 24 06.55  .83728 1.5267 111.5 21.9  530 132
2022 09 12 00  00 50 20.302   -71 24 34.60  .83778 1.5270 111.4 21.9  531 132
2022 09 12 01  00 50 17.629   -71 25 02.54  .83827 1.5272 111.4 21.9  531 132
2022 09 12 02  00 50 14.949   -71 25 30.37  .83877 1.5274 111.4 21.9  532 132
2022 09 12 03  00 50 12.263   -71 25 58.09  .83927 1.5277 111.4 21.9  533 132
2022 09 12 04  00 50 09.571   -71 26 25.70  .83976 1.5279 111.4 21.9  534 132
2022 09 12 05  00 50 06.873   -71 26 53.20  .84026 1.5281 111.4 21.9  535 132
2022 09 12 06  00 50 04.169   -71 27 20.59  .84075 1.5284 111.3 21.9  536 132
2022 09 12 07  00 50 01.459   -71 27 47.87  .84125 1.5286 111.3 21.9  537 132
2022 09 12 08  00 49 58.742   -71 28 15.04  .84175 1.5288 111.3 21.9  538 132
2022 09 12 09  00 49 56.020   -71 28 42.10  .84224 1.5291 111.3 21.9  539 132
2022 09 12 10  00 49 53.292   -71 29 09.05  .84274 1.5293 111.3 21.9  540 132
2022 09 12 11  00 49 50.558   -71 29 35.90  .84323 1.5295 111.3 21.9  541 132
2022 09 12 12  00 49 47.818   -71 30 02.63  .84373 1.5298 111.2 21.9  542 132
2022 09 12 13  00 49 45.072   -71 30 29.26  .84423 1.5300 111.2 21.9  543 132
2022 09 12 14  00 49 42.320   -71 30 55.77  .84472 1.5303 111.2 21.9  543 132
2022 09 12 15  00 49 39.562   -71 31 22.18  .84522 1.5305 111.2 21.9  544 132
2022 09 12 16  00 49 36.798   -71 31 48.48  .84571 1.5307 111.2 21.9  545 132
2022 09 12 17  00 49 34.028   -71 32 14.68  .84621 1.5310 111.2 21.9  546 132
2022 09 12 18  00 49 31.253   -71 32 40.76  .84671 1.5312 111.1 21.9  547 133
2022 09 12 19  00 49 28.472   -71 33 06.74  .84720 1.5314 111.1 21.9  548 133
2022 09 12 20  00 49 25.685   -71 33 32.60  .84770 1.5317 111.1 21.9  549 133
2022 09 12 21  00 49 22.892   -71 33 58.37  .84820 1.5319 111.1 21.9  550 133
2022 09 12 22  00 49 20.094   -71 34 24.02  .84869 1.5321 111.1 21.9  551 133
2022 09 12 23  00 49 17.290   -71 34 49.56  .84919 1.5324 111.1 21.9  552 133
2022 09 13 00  00 49 14.480   -71 35 15.00  .84969 1.5326 111.1 21.9  553 133
2022 09 13 01  00 49 11.665   -71 35 40.33  .85018 1.5329 111.0 21.9  554 133
2022 09 13 02  00 49 08.843   -71 36 05.55  .85068 1.5331 111.0 22.0  555 133
2022 09 13 03  00 49 06.017   -71 36 30.67  .85117 1.5333 111.0 22.0  555 133
2022 09 13 04  00 49 03.184   -71 36 55.68  .85167 1.5336 111.0 22.0  556 133
2022 09 13 05  00 49 00.346   -71 37 20.58  .85217 1.5338 111.0 22.0  557 133
2022 09 13 06  00 48 57.503   -71 37 45.38  .85266 1.5340 111.0 22.0  558 133
2022 09 13 07  00 48 54.654   -71 38 10.07  .85316 1.5343 110.9 22.0  559 133
2022 09 13 08  00 48 51.800   -71 38 34.65  .85366 1.5345 110.9 22.0  560 133
2022 09 13 09  00 48 48.940   -71 38 59.13  .85415 1.5347 110.9 22.0  561 133
2022 09 13 10  00 48 46.074   -71 39 23.50  .85465 1.5350 110.9 22.0  562 133
2022 09 13 11  00 48 43.203   -71 39 47.76  .85515 1.5352 110.9 22.0  563 133
2022 09 13 12  00 48 40.327   -71 40 11.92  .85564 1.5355 110.9 22.0  564 133
2022 09 13 13  00 48 37.445   -71 40 35.97  .85614 1.5357 110.8 22.0  565 133